Check out our new BloomSky Weather System.

Active alerts


No alerts


Thunder radar  blitzortung!


Rain radar more information rain snow radar


Visit our other weather sites:

Template documentation
and downloads

And another site



Weather Underground History page Text

Daily Summary for January 9, 2017 Units:  English    Metric   Both
« Previous Day
Next Day »
Daily Weekly Monthly Yearly Custom
  High: Low: Average:
Temperature: 65.8 °F 42.6 °F 56.3 °F
Dew Point: 59.4 °F 36.5 °F 51.5 °F
Humidity: 91 % 74 % 84 %
Wind Speed: 13.0 mph 0.0 mph 3.2 mph
Wind Gust: 18.0 mph - -
Wind:- - SE
Pressure: 30.51 in 30.16 in -
Precipitation: 0.00 in    
Historical Graphs
 
 
Tabular Data for January 9, 2017
Time Temperature Dew Point Pressure Wind Wind Speed Wind Gust Humidity Rainfall Rate (Hourly)
00:04 42.6 °F 36.5 °F 30.51 in Calm   2.0 mph 79 % 0.00 in
00:09 42.8 °F 36.7 °F 30.51 in ENE 2.0 mph 2.0 mph 79 % 0.00 in
00:14 42.8 °F 36.7 °F 30.51 in South 1.0 mph 3.0 mph 79 % 0.00 in
00:24 42.8 °F 36.7 °F 30.50 in Calm   3.0 mph 79 % 0.00 in
00:29 42.8 °F 36.7 °F 30.50 in East 1.0 mph 3.0 mph 79 % 0.00 in
00:34 42.8 °F 37.0 °F 30.50 in Calm   2.0 mph 80 % 0.00 in
00:39 43.0 °F 37.2 °F 30.50 in East 1.0 mph 2.0 mph 80 % 0.00 in
00:44 42.8 °F 37.0 °F 30.49 in Calm   2.0 mph 80 % 0.00 in
00:49 43.0 °F 37.2 °F 30.49 in East 2.0 mph 3.0 mph 80 % 0.00 in
00:54 43.0 °F 37.2 °F 30.49 in ENE 2.0 mph 3.0 mph 80 % 0.00 in
00:59 43.0 °F 37.2 °F 30.49 in East 2.0 mph 3.0 mph 80 % 0.00 in
01:04 43.0 °F 37.2 °F 30.48 in ENE 2.0 mph 3.0 mph 80 % 0.00 in
01:09 43.0 °F 37.2 °F 30.48 in SE 1.0 mph 4.0 mph 80 % 0.00 in
01:14 43.0 °F 37.2 °F 30.47 in Calm   4.0 mph 80 % 0.00 in
01:19 43.0 °F 37.2 °F 30.48 in Calm   4.0 mph 80 % 0.00 in
01:24 43.0 °F 37.2 °F 30.47 in Calm   4.0 mph 80 % 0.00 in
01:29 43.0 °F 37.6 °F 30.47 in East 2.0 mph 3.0 mph 81 % 0.00 in
01:34 43.0 °F 37.6 °F 30.47 in ESE 1.0 mph 3.0 mph 81 % 0.00 in
01:39 43.0 °F 37.6 °F 30.47 in Calm   4.0 mph 81 % 0.00 in
01:44 43.2 °F 37.8 °F 30.47 in ESE 2.0 mph 4.0 mph 81 % 0.00 in
01:49 43.2 °F 37.8 °F 30.47 in Calm   4.0 mph 81 % 0.00 in
01:59 43.2 °F 38.1 °F 30.47 in NNE 4.0 mph 4.0 mph 82 % 0.00 in
02:04 43.3 °F 38.3 °F 30.46 in Calm   4.0 mph 82 % 0.00 in
02:09 43.3 °F 38.3 °F 30.46 in East 1.0 mph 4.0 mph 82 % 0.00 in
02:14 43.3 °F 38.5 °F 30.46 in East 1.0 mph 4.0 mph 83 % 0.00 in
02:20 43.5 °F 38.7 °F 30.46 in ESE 1.0 mph 5.0 mph 83 % 0.00 in
02:25 43.5 °F 38.7 °F 30.46 in East 1.0 mph 5.0 mph 83 % 0.00 in
02:30 43.5 °F 38.7 °F 30.46 in ENE 1.0 mph 5.0 mph 83 % 0.00 in
02:35 43.7 °F 38.8 °F 30.47 in Calm   4.0 mph 83 % 0.00 in
02:40 43.9 °F 39.0 °F 30.46 in ENE 1.0 mph 4.0 mph 83 % 0.00 in
02:45 43.9 °F 39.0 °F 30.46 in Calm   4.0 mph 83 % 0.00 in
02:50 43.9 °F 39.4 °F 30.47 in NNW 1.0 mph 4.0 mph 84 % 0.00 in
02:55 43.9 °F 39.4 °F 30.47 in NE 2.0 mph 4.0 mph 84 % 0.00 in
03:00 43.9 °F 39.4 °F 30.46 in Calm   3.0 mph 84 % 0.00 in
03:05 43.9 °F 39.7 °F 30.46 in East 1.0 mph 5.0 mph 85 % 0.00 in
03:10 43.9 °F 39.7 °F 30.46 in East 2.0 mph 5.0 mph 85 % 0.00 in
03:15 44.1 °F 39.9 °F 30.45 in East 2.0 mph 5.0 mph 85 % 0.00 in
03:20 44.1 °F 39.9 °F 30.45 in North 1.0 mph 5.0 mph 85 % 0.00 in
03:25 44.1 °F 39.9 °F 30.45 in Calm   5.0 mph 85 % 0.00 in
03:30 44.1 °F 39.9 °F 30.45 in Calm   5.0 mph 85 % 0.00 in
03:35 44.1 °F 40.1 °F 30.45 in NE 3.0 mph 5.0 mph 86 % 0.00 in
03:40 44.2 °F 40.3 °F 30.45 in Calm   6.0 mph 86 % 0.00 in
03:45 44.2 °F 40.3 °F 30.45 in East 1.0 mph 6.0 mph 86 % 0.00 in
03:50 44.4 °F 40.5 °F 30.45 in Calm   6.0 mph 86 % 0.00 in
03:55 44.4 °F 40.5 °F 30.44 in Calm   3.0 mph 86 % 0.00 in
04:00 44.6 °F 41.0 °F 30.44 in Calm   3.0 mph 87 % 0.00 in
04:01 44.6 °F 41.0 °F 30.44 in Calm   3.0 mph 87 % 0.00 in
04:06 44.8 °F 41.2 °F 30.44 in Calm   3.0 mph 87 % 0.00 in
04:11 44.8 °F 41.2 °F 30.44 in East 2.0 mph 3.0 mph 87 % 0.00 in
04:16 45.0 °F 41.4 °F 30.43 in SE 1.0 mph 4.0 mph 87 % 0.00 in
04:21 45.0 °F 41.4 °F 30.44 in Calm   4.0 mph 87 % 0.00 in
04:26 45.1 °F 41.5 °F 30.43 in Calm   4.0 mph 87 % 0.00 in
04:31 45.1 °F 41.5 °F 30.43 in Calm   4.0 mph 87 % 0.00 in
04:36 45.1 °F 41.5 °F 30.43 in Calm   4.0 mph 87 % 0.00 in
04:41 45.1 °F 41.5 °F 30.43 in Calm   4.0 mph 87 % 0.00 in
04:46 45.1 °F 41.5 °F 30.43 in ENE 3.0 mph 4.0 mph 87 % 0.00 in
04:51 45.3 °F 41.9 °F 30.43 in East 1.0 mph 5.0 mph 88 % 0.00 in
04:56 45.3 °F 41.9 °F 30.42 in ENE 3.0 mph 5.0 mph 88 % 0.00 in
05:01 45.3 °F 41.9 °F 30.42 in Calm   5.0 mph 88 % 0.00 in
05:06 45.5 °F 42.1 °F 30.42 in East 4.0 mph 4.0 mph 88 % 0.00 in
05:11 45.5 °F 42.1 °F 30.42 in East 1.0 mph 4.0 mph 88 % 0.00 in
05:16 45.7 °F 42.3 °F 30.42 in North 1.0 mph 5.0 mph 88 % 0.00 in
05:21 45.7 °F 42.3 °F 30.41 in ENE 1.0 mph 5.0 mph 88 % 0.00 in
05:26 45.7 °F 42.3 °F 30.41 in ENE 2.0 mph 5.0 mph 88 % 0.00 in
05:31 45.9 °F 42.4 °F 30.41 in Calm   4.0 mph 88 % 0.00 in
05:36 45.9 °F 42.4 °F 30.41 in NNW 1.0 mph 4.0 mph 88 % 0.00 in
05:41 46.0 °F 42.6 °F 30.41 in Calm   5.0 mph 88 % 0.00 in
05:46 46.0 °F 42.6 °F 30.41 in Calm   5.0 mph 88 % 0.00 in
05:51 46.0 °F 42.6 °F 30.41 in Calm   5.0 mph 88 % 0.00 in
05:56 46.2 °F 42.8 °F 30.41 in East 1.0 mph 5.0 mph 88 % 0.00 in
06:01 46.2 °F 43.2 °F 30.41 in Calm   4.0 mph 89 % 0.00 in
06:06 46.2 °F 43.2 °F 30.41 in Calm   4.0 mph 89 % 0.00 in
06:11 46.6 °F 43.5 °F 30.41 in East 1.0 mph 4.0 mph 89 % 0.00 in
06:16 46.6 °F 43.5 °F 30.41 in ESE 2.0 mph 4.0 mph 89 % 0.00 in
06:21 46.8 °F 43.7 °F 30.41 in ESE 1.0 mph 4.0 mph 89 % 0.00 in
06:26 46.8 °F 43.7 °F 30.41 in East 2.0 mph 5.0 mph 89 % 0.00 in
06:31 46.8 °F 43.7 °F 30.41 in Calm   5.0 mph 89 % 0.00 in
06:36 46.9 °F 43.9 °F 30.41 in Calm   5.0 mph 89 % 0.00 in
06:41 46.9 °F 43.9 °F 30.41 in SE 2.0 mph 5.0 mph 89 % 0.00 in
06:46 46.9 °F 43.9 °F 30.41 in East 1.0 mph 5.0 mph 89 % 0.00 in
06:51 46.9 °F 43.9 °F 30.41 in NE 2.0 mph 5.0 mph 89 % 0.00 in
07:01 47.1 °F 44.1 °F 30.41 in Calm   5.0 mph 89 % 0.00 in
07:06 47.1 °F 44.1 °F 30.41 in ESE 1.0 mph 5.0 mph 89 % 0.00 in
07:11 47.1 °F 44.1 °F 30.41 in Calm   5.0 mph 89 % 0.00 in
07:16 47.3 °F 44.2 °F 30.41 in ESE 1.0 mph 6.0 mph 89 % 0.00 in
07:21 47.5 °F 44.4 °F 30.41 in ESE 1.0 mph 6.0 mph 89 % 0.00 in
07:26 47.5 °F 44.8 °F 30.41 in SE 2.0 mph 6.0 mph 90 % 0.00 in
07:31 47.7 °F 45.0 °F 30.41 in East 1.0 mph 5.0 mph 90 % 0.00 in
07:36 47.8 °F 45.0 °F 30.41 in East 2.0 mph 5.0 mph 90 % 0.00 in
07:41 48.0 °F 45.1 °F 30.41 in ESE 2.0 mph 5.0 mph 90 % 0.00 in
07:46 48.2 °F 45.3 °F 30.41 in ESE 1.0 mph 5.0 mph 90 % 0.00 in
07:51 48.4 °F 45.5 °F 30.42 in Calm   5.0 mph 90 % 0.00 in
07:56 48.4 °F 45.5 °F 30.42 in SE 1.0 mph 5.0 mph 90 % 0.00 in
08:01 48.7 °F 45.9 °F 30.42 in ESE 5.0 mph 6.0 mph 90 % 0.00 in
08:11 49.3 °F 46.8 °F 30.41 in East 4.0 mph 6.0 mph 91 % 0.00 in
08:16 49.5 °F 46.9 °F 30.41 in SSW 1.0 mph 6.0 mph 91 % 0.00 in
08:21 49.6 °F 47.1 °F 30.41 in East 1.0 mph 6.0 mph 91 % 0.00 in
08:26 49.8 °F 47.3 °F 30.42 in ESE 1.0 mph 6.0 mph 91 % 0.00 in
08:31 50.2 °F 47.7 °F 30.42 in SE 3.0 mph 5.0 mph 91 % 0.00 in
08:36 50.4 °F 47.8 °F 30.42 in Calm   5.0 mph 91 % 0.00 in
08:41 50.5 °F 48.0 °F 30.42 in ESE 1.0 mph 5.0 mph 91 % 0.00 in
08:46 50.9 °F 48.4 °F 30.42 in East 1.0 mph 5.0 mph 91 % 0.00 in
08:56 51.4 °F 48.6 °F 30.43 in ESE 2.0 mph 5.0 mph 90 % 0.00 in
09:02 51.6 °F 48.7 °F 30.43 in SE 2.0 mph 5.0 mph 90 % 0.00 in
09:07 51.8 °F 48.9 °F 30.43 in Calm   5.0 mph 90 % 0.00 in
09:12 52.2 °F 49.3 °F 30.43 in SSE 2.0 mph 5.0 mph 90 % 0.00 in
09:17 52.3 °F 49.5 °F 30.43 in SE 2.0 mph 5.0 mph 90 % 0.00 in
09:22 52.5 °F 49.6 °F 30.43 in ESE 3.0 mph 5.0 mph 90 % 0.00 in
09:27 52.9 °F 50.0 °F 30.43 in ESE 1.0 mph 5.0 mph 90 % 0.00 in
09:32 53.1 °F 50.2 °F 30.43 in East 4.0 mph 5.0 mph 90 % 0.00 in
09:37 53.2 °F 50.4 °F 30.43 in East 2.0 mph 5.0 mph 90 % 0.00 in
09:42 53.8 °F 50.9 °F 30.43 in ESE 4.0 mph 7.0 mph 90 % 0.00 in
09:47 54.1 °F 51.3 °F 30.43 in ESE 5.0 mph 7.0 mph 90 % 0.00 in
09:52 54.3 °F 51.4 °F 30.43 in SE 4.0 mph 7.0 mph 90 % 0.00 in
09:57 54.9 °F 52.0 °F 30.43 in South 5.0 mph 11.0 mph 90 % 0.00 in
10:02 55.2 °F 52.3 °F 30.43 in SE 1.0 mph 11.0 mph 90 % 0.00 in
10:07 55.8 °F 52.5 °F 30.44 in NE 3.0 mph 11.0 mph 89 % 0.00 in
10:12 56.3 °F 53.1 °F 30.43 in SSE 2.0 mph 8.0 mph 89 % 0.00 in
10:17 56.5 °F 52.9 °F 30.43 in ESE 3.0 mph 10.0 mph 88 % 0.00 in
10:22 57.0 °F 53.4 °F 30.43 in East 5.0 mph 10.0 mph 88 % 0.00 in
10:27 57.6 °F 53.8 °F 30.43 in SSE 3.0 mph 10.0 mph 87 % 0.00 in
10:32 57.9 °F 54.1 °F 30.42 in ESE 4.0 mph 8.0 mph 87 % 0.00 in
10:37 58.5 °F 54.7 °F 30.42 in ESE 6.0 mph 11.0 mph 87 % 0.00 in
10:42 58.8 °F 54.3 °F 30.41 in SE 7.0 mph 14.0 mph 85 % 0.00 in
10:47 59.4 °F 54.9 °F 30.41 in SE 7.0 mph 14.0 mph 85 % 0.00 in
10:52 60.1 °F 55.2 °F 30.41 in ESE 8.0 mph 15.0 mph 84 % 0.00 in
10:57 60.3 °F 55.4 °F 30.41 in SE 3.0 mph 15.0 mph 84 % 0.00 in
11:02 60.6 °F 55.4 °F 30.41 in ESE 5.0 mph 15.0 mph 83 % 0.00 in
11:07 61.2 °F 55.6 °F 30.40 in SE 7.0 mph 13.0 mph 82 % 0.00 in
11:12 61.7 °F 55.8 °F 30.40 in East 6.0 mph 14.0 mph 81 % 0.00 in
11:17 61.9 °F 55.6 °F 30.40 in SSW 7.0 mph 17.0 mph 80 % 0.00 in
11:22 62.1 °F 56.1 °F 30.39 in SE 5.0 mph 17.0 mph 81 % 0.00 in
11:27 62.1 °F 55.8 °F 30.39 in SE 5.0 mph 17.0 mph 80 % 0.00 in
11:32 62.2 °F 56.3 °F 30.39 in South 4.0 mph 14.0 mph 81 % 0.00 in
11:37 62.4 °F 56.1 °F 30.38 in SE 6.0 mph 13.0 mph 80 % 0.00 in
11:42 62.4 °F 56.1 °F 30.38 in SE 7.0 mph 13.0 mph 80 % 0.00 in
11:47 62.8 °F 56.5 °F 30.37 in ESE 8.0 mph 13.0 mph 80 % 0.00 in
11:52 63.1 °F 56.8 °F 30.37 in SE 9.0 mph 13.0 mph 80 % 0.00 in
11:57 63.7 °F 57.0 °F 30.36 in SE 6.0 mph 15.0 mph 79 % 0.00 in
12:02 64.4 °F 57.4 °F 30.35 in South 9.0 mph 15.0 mph 78 % 0.00 in
12:07 64.8 °F 57.0 °F 30.35 in SE 10.0 mph 15.0 mph 76 % 0.00 in
12:12 65.1 °F 57.0 °F 30.35 in SSE 7.0 mph 16.0 mph 75 % 0.00 in
12:17 65.1 °F 56.7 °F 30.35 in SE 10.0 mph 18.0 mph 74 % 0.00 in
12:22 64.9 °F 56.8 °F 30.34 in SE 6.0 mph 18.0 mph 75 % 0.00 in
12:27 65.1 °F 57.4 °F 30.34 in SSE 12.0 mph 18.0 mph 76 % 0.00 in
12:32 65.1 °F 57.0 °F 30.33 in SSE 9.0 mph 18.0 mph 75 % 0.00 in
12:37 64.9 °F 57.2 °F 30.33 in SE 6.0 mph 16.0 mph 76 % 0.00 in
12:47 65.1 °F 57.0 °F 30.32 in SSE 6.0 mph 13.0 mph 75 % 0.00 in
12:52 64.9 °F 56.8 °F 30.32 in SSE 4.0 mph 13.0 mph 75 % 0.00 in
12:57 65.1 °F 57.0 °F 30.31 in SSE 7.0 mph 15.0 mph 75 % 0.00 in
13:02 65.1 °F 57.4 °F 30.31 in East 6.0 mph 15.0 mph 76 % 0.00 in
13:07 64.9 °F 57.2 °F 30.31 in ESE 9.0 mph 15.0 mph 76 % 0.00 in
13:12 64.9 °F 57.2 °F 30.30 in South 5.0 mph 11.0 mph 76 % 0.00 in
13:22 64.8 °F 57.0 °F 30.30 in SSE 7.0 mph 11.0 mph 76 % 0.00 in
13:27 64.8 °F 57.4 °F 30.30 in ESE 11.0 mph 13.0 mph 77 % 0.00 in
13:33 64.6 °F 57.2 °F 30.30 in SE 5.0 mph 13.0 mph 77 % 0.00 in
13:38 64.6 °F 57.2 °F 30.30 in SE 3.0 mph 14.0 mph 77 % 0.00 in
13:48 64.8 °F 57.7 °F 30.29 in SE 5.0 mph 14.0 mph 78 % 0.00 in
13:53 64.9 °F 57.6 °F 30.29 in SSE 4.0 mph 14.0 mph 77 % 0.00 in
13:58 65.1 °F 57.7 °F 30.29 in ESE 13.0 mph 14.0 mph 77 % 0.00 in
14:03 65.3 °F 57.9 °F 30.28 in SE 8.0 mph 14.0 mph 77 % 0.00 in
14:08 65.8 °F 58.1 °F 30.28 in SE 4.0 mph 14.0 mph 76 % 0.00 in
14:13 65.8 °F 58.1 °F 30.28 in SE 5.0 mph 14.0 mph 76 % 0.00 in
14:18 65.8 °F 58.1 °F 30.27 in SSE 5.0 mph 13.0 mph 76 % 0.00 in
14:23 65.8 °F 58.1 °F 30.27 in East 6.0 mph 13.0 mph 76 % 0.00 in
14:28 65.8 °F 58.1 °F 30.27 in SSE 7.0 mph 13.0 mph 76 % 0.00 in
14:33 65.8 °F 58.1 °F 30.27 in East 7.0 mph 13.0 mph 76 % 0.00 in
14:38 65.7 °F 57.9 °F 30.27 in SE 5.0 mph 13.0 mph 76 % 0.00 in
14:43 65.5 °F 57.7 °F 30.27 in SE 3.0 mph 13.0 mph 76 % 0.00 in
14:48 65.5 °F 58.1 °F 30.27 in East 8.0 mph 13.0 mph 77 % 0.00 in
14:53 65.5 °F 58.1 °F 30.27 in SE 5.0 mph 11.0 mph 77 % 0.00 in
14:58 65.5 °F 58.1 °F 30.27 in ESE 5.0 mph 11.0 mph 77 % 0.00 in
15:03 65.5 °F 58.5 °F 30.27 in SE 2.0 mph 11.0 mph 78 % 0.00 in
15:08 65.1 °F 58.1 °F 30.27 in South 3.0 mph 11.0 mph 78 % 0.00 in
15:13 65.1 °F 58.1 °F 30.26 in East 5.0 mph 11.0 mph 78 % 0.00 in
15:18 65.1 °F 58.5 °F 30.26 in SE 5.0 mph 11.0 mph 79 % 0.00 in
15:23 65.1 °F 58.1 °F 30.26 in SE 8.0 mph 11.0 mph 78 % 0.00 in
15:28 65.1 °F 58.1 °F 30.26 in SSE 8.0 mph 11.0 mph 78 % 0.00 in
15:33 65.3 °F 58.3 °F 30.25 in East 3.0 mph 13.0 mph 78 % 0.00 in
15:38 65.1 °F 58.1 °F 30.25 in ESE 4.0 mph 13.0 mph 78 % 0.00 in
15:43 65.1 °F 58.1 °F 30.25 in East 3.0 mph 13.0 mph 78 % 0.00 in
15:48 65.1 °F 58.1 °F 30.25 in ESE 5.0 mph 10.0 mph 78 % 0.00 in
15:53 65.1 °F 58.1 °F 30.25 in ESE 5.0 mph 10.0 mph 78 % 0.00 in
15:58 65.1 °F 58.1 °F 30.25 in East 3.0 mph 10.0 mph 78 % 0.00 in
16:03 64.9 °F 58.3 °F 30.25 in SE 5.0 mph 10.0 mph 79 % 0.00 in
16:08 64.8 °F 58.1 °F 30.25 in SE 2.0 mph 7.0 mph 79 % 0.00 in
16:13 64.6 °F 58.3 °F 30.25 in ESE 2.0 mph 7.0 mph 80 % 0.00 in
16:18 64.4 °F 58.1 °F 30.26 in SE 2.0 mph 7.0 mph 80 % 0.00 in
16:23 64.2 °F 58.3 °F 30.26 in ESE 3.0 mph 8.0 mph 81 % 0.00 in
16:28 64.2 °F 58.6 °F 30.26 in SSE 4.0 mph 8.0 mph 82 % 0.00 in
16:33 64.0 °F 58.8 °F 30.25 in ESE 4.0 mph 8.0 mph 83 % 0.00 in
16:38 64.0 °F 58.8 °F 30.25 in SSE 3.0 mph 7.0 mph 83 % 0.00 in
16:43 64.0 °F 59.2 °F 30.25 in SE 2.0 mph 7.0 mph 84 % 0.00 in
16:48 64.4 °F 59.2 °F 30.25 in ESE 4.0 mph 5.0 mph 83 % 0.00 in
16:53 64.4 °F 58.8 °F 30.24 in ESE 2.0 mph 6.0 mph 82 % 0.00 in
16:58 64.2 °F 58.6 °F 30.24 in ENE 2.0 mph 6.0 mph 82 % 0.00 in
17:03 64.0 °F 58.8 °F 30.24 in SE 4.0 mph 6.0 mph 83 % 0.00 in
17:08 64.0 °F 58.8 °F 30.24 in SE 2.0 mph 6.0 mph 83 % 0.00 in
17:13 64.0 °F 58.8 °F 30.24 in SE 3.0 mph 6.0 mph 83 % 0.00 in
17:18 64.0 °F 58.5 °F 30.24 in ESE 2.0 mph 6.0 mph 82 % 0.00 in
17:23 64.0 °F 58.5 °F 30.24 in East 1.0 mph 6.0 mph 82 % 0.00 in
17:28 63.9 °F 58.6 °F 30.24 in ESE 2.0 mph 6.0 mph 83 % 0.00 in
17:33 63.9 °F 58.6 °F 30.23 in East 1.0 mph 5.0 mph 83 % 0.00 in
17:38 63.7 °F 58.5 °F 30.23 in SE 2.0 mph 5.0 mph 83 % 0.00 in
17:43 63.7 °F 58.5 °F 30.23 in SE 3.0 mph 5.0 mph 83 % 0.00 in
17:49 63.5 °F 58.3 °F 30.23 in ESE 3.0 mph 5.0 mph 83 % 0.00 in
17:54 63.7 °F 58.5 °F 30.23 in SE 2.0 mph 5.0 mph 83 % 0.00 in
17:59 63.7 °F 58.5 °F 30.23 in SSE 3.0 mph 5.0 mph 83 % 0.00 in
18:04 63.9 °F 58.6 °F 30.22 in SSE 3.0 mph 5.0 mph 83 % 0.00 in
18:09 64.0 °F 58.8 °F 30.22 in SSE 3.0 mph 6.0 mph 83 % 0.00 in
18:14 64.0 °F 58.8 °F 30.22 in ESE 4.0 mph 6.0 mph 83 % 0.00 in
18:19 64.2 °F 59.0 °F 30.22 in SSW 4.0 mph 6.0 mph 83 % 0.00 in
18:24 64.2 °F 59.0 °F 30.22 in ESE 8.0 mph 8.0 mph 83 % 0.00 in
18:29 64.4 °F 59.2 °F 30.22 in SE 7.0 mph 11.0 mph 83 % 0.00 in
18:34 64.6 °F 59.4 °F 30.22 in SE 6.0 mph 11.0 mph 83 % 0.00 in
18:39 64.6 °F 59.4 °F 30.22 in SSE 7.0 mph 11.0 mph 83 % 0.00 in
18:44 64.6 °F 59.4 °F 30.22 in ESE 5.0 mph 10.0 mph 83 % 0.00 in
18:54 64.6 °F 59.4 °F 30.21 in ESE 2.0 mph 9.0 mph 83 % 0.00 in
18:59 64.6 °F 59.4 °F 30.21 in SE 4.0 mph 7.0 mph 83 % 0.00 in
19:00 64.6 °F 59.4 °F 30.21 in SE 2.0 mph 9.0 mph 83 % 0.00 in
19:05 64.6 °F 59.4 °F 30.21 in SE 4.0 mph 9.0 mph 83 % 0.00 in
19:10 64.4 °F 59.2 °F 30.21 in SE 5.0 mph 9.0 mph 83 % 0.00 in
19:15 64.2 °F 59.4 °F 30.21 in South 5.0 mph 9.0 mph 84 % 0.00 in
19:20 64.0 °F 59.2 °F 30.21 in SSE 2.0 mph 9.0 mph 84 % 0.00 in
19:25 63.9 °F 59.0 °F 30.21 in SE 6.0 mph 9.0 mph 84 % 0.00 in
19:30 63.9 °F 59.2 °F 30.21 in SSE 3.0 mph 9.0 mph 85 % 0.00 in
19:31 63.9 °F 59.2 °F 30.21 in SSE 2.0 mph 9.0 mph 85 % 0.00 in
19:36 63.7 °F 59.0 °F 30.21 in SE 5.0 mph 8.0 mph 85 % 0.00 in
19:41 63.5 °F 58.8 °F 30.21 in SSE 2.0 mph 8.0 mph 85 % 0.00 in
19:46 63.3 °F 58.8 °F 30.21 in SE 3.0 mph 7.0 mph 85 % 0.00 in
19:51 63.1 °F 58.8 °F 30.22 in SSE 3.0 mph 7.0 mph 86 % 0.00 in
19:56 63.1 °F 58.8 °F 30.22 in South 4.0 mph 7.0 mph 86 % 0.00 in
20:01 63.1 °F 58.8 °F 30.22 in SW 4.0 mph 8.0 mph 86 % 0.00 in
20:06 63.1 °F 58.8 °F 30.22 in SE 1.0 mph 8.0 mph 86 % 0.00 in
20:11 63.0 °F 58.6 °F 30.22 in South 4.0 mph 8.0 mph 86 % 0.00 in
20:16 63.0 °F 58.6 °F 30.21 in SSE 2.0 mph 7.0 mph 86 % 0.00 in
20:21 62.8 °F 58.5 °F 30.21 in South 1.0 mph 7.0 mph 86 % 0.00 in
20:26 62.8 °F 58.8 °F 30.22 in SE 3.0 mph 7.0 mph 87 % 0.00 in
20:31 62.8 °F 58.8 °F 30.21 in SSE 3.0 mph 8.0 mph 87 % 0.00 in
20:36 62.8 °F 58.8 °F 30.21 in ESE 5.0 mph 8.0 mph 87 % 0.00 in
20:41 62.8 °F 58.8 °F 30.21 in South 4.0 mph 8.0 mph 87 % 0.00 in
20:46 62.8 °F 58.8 °F 30.21 in SW 3.0 mph 8.0 mph 87 % 0.00 in
20:51 62.6 °F 58.6 °F 30.21 in SE 2.0 mph 6.0 mph 87 % 0.00 in
20:57 62.6 °F 58.6 °F 30.21 in SE 3.0 mph 6.0 mph 87 % 0.00 in
21:02 62.4 °F 58.5 °F 30.21 in SSW 3.0 mph 6.0 mph 87 % 0.00 in
21:07 62.4 °F 58.5 °F 30.21 in SE 3.0 mph 6.0 mph 87 % 0.00 in
21:12 62.4 °F 58.5 °F 30.21 in SSE 3.0 mph 6.0 mph 87 % 0.00 in
21:17 62.4 °F 58.5 °F 30.21 in SSE 2.0 mph 7.0 mph 87 % 0.00 in
21:22 62.4 °F 58.5 °F 30.21 in South 2.0 mph 7.0 mph 87 % 0.00 in
21:27 62.4 °F 58.5 °F 30.21 in SSE 3.0 mph 7.0 mph 87 % 0.00 in
21:32 62.4 °F 58.5 °F 30.21 in SE 2.0 mph 7.0 mph 87 % 0.00 in
21:37 62.4 °F 58.5 °F 30.21 in SSE 4.0 mph 7.0 mph 87 % 0.00 in
21:42 62.6 °F 58.6 °F 30.21 in South 3.0 mph 7.0 mph 87 % 0.00 in
21:47 62.8 °F 58.8 °F 30.21 in SE 4.0 mph 7.0 mph 87 % 0.00 in
21:52 62.8 °F 58.8 °F 30.21 in South 4.0 mph 7.0 mph 87 % 0.00 in
21:57 62.8 °F 58.8 °F 30.21 in SSE 2.0 mph 6.0 mph 87 % 0.00 in
22:02 62.8 °F 58.8 °F 30.21 in SE 3.0 mph 8.0 mph 87 % 0.00 in
22:07 62.8 °F 58.8 °F 30.21 in South 6.0 mph 8.0 mph 87 % 0.00 in
22:12 62.8 °F 58.8 °F 30.21 in SSE 3.0 mph 11.0 mph 87 % 0.00 in
22:17 62.8 °F 58.8 °F 30.20 in SE 4.0 mph 11.0 mph 87 % 0.00 in
22:22 63.0 °F 59.0 °F 30.20 in SE 5.0 mph 11.0 mph 87 % 0.00 in
22:27 63.0 °F 59.0 °F 30.20 in South 7.0 mph 10.0 mph 87 % 0.00 in
22:32 63.1 °F 58.8 °F 30.20 in SSE 7.0 mph 14.0 mph 86 % 0.00 in
22:37 63.1 °F 58.8 °F 30.20 in SE 5.0 mph 14.0 mph 86 % 0.00 in
22:42 63.0 °F 59.0 °F 30.19 in SSE 4.0 mph 14.0 mph 87 % 0.00 in
22:47 63.0 °F 59.0 °F 30.19 in SSE 5.0 mph 11.0 mph 87 % 0.00 in
22:52 63.0 °F 58.6 °F 30.19 in SSE 5.0 mph 13.0 mph 86 % 0.00 in
22:57 62.8 °F 58.5 °F 30.19 in SSW 4.0 mph 13.0 mph 86 % 0.00 in
23:02 62.8 °F 58.8 °F 30.19 in SSW 5.0 mph 13.0 mph 87 % 0.00 in
23:07 62.8 °F 58.8 °F 30.18 in SE 5.0 mph 9.0 mph 87 % 0.00 in
23:12 62.6 °F 58.6 °F 30.18 in South 5.0 mph 9.0 mph 87 % 0.00 in
23:18 62.8 °F 58.8 °F 30.18 in SSE 5.0 mph 11.0 mph 87 % 0.00 in
23:23 62.8 °F 58.8 °F 30.18 in ESE 2.0 mph 11.0 mph 87 % 0.00 in
23:28 62.8 °F 58.8 °F 30.17 in SSE 5.0 mph 11.0 mph 87 % 0.00 in
23:33 62.8 °F 58.8 °F 30.17 in SSE 3.0 mph 11.0 mph 87 % 0.00 in
23:38 62.8 °F 58.8 °F 30.17 in SSE 5.0 mph 9.0 mph 87 % 0.00 in
23:43 62.8 °F 58.8 °F 30.17 in South 5.0 mph 9.0 mph 87 % 0.00 in
23:48 62.8 °F 58.8 °F 30.17 in SSE 2.0 mph 9.0 mph 87 % 0.00 in
23:53 62.6 °F 58.6 °F 30.16 in South 6.0 mph 9.0 mph 87 % 0.00 in
23:58 62.6 °F 58.6 °F 30.16 in ESE 2.0 mph 9.0 mph 87 % 0.00 in
Spring, Texas: Villages of Bridgestone
Compliments of Weather Underground - 2.75 mb

Script developed by  Jim McMurry - jmcmurry@mwt.net Adapted for the template by  Wim van der Kuil - Leuven-Template.eu

You find our weather info also at:

UK Metoffice

WeatherCloud

Weather Underground

Mid-South Weather Network

AWEKAS

Citizen Weather Observer Program (CWOP)

HAMweather, WeatherForYou, PWS Weather

Equipment we use:

Weather-station
Davis Vantage Vue

Weather-program
Meteohub

Weather-server
Debian 7.9 x86 (Guest)

Provider
DreamHost

Davis Vantage Vue

Meteohub

Debian 7.9 x86 (Guest)

DreamHost